contact:dominique.lefevre@mio.osupytheas.fr, maurice.libes@osupytheas.fr, didier.mallarino@osupytheas.fr
Project:EMSO http://www.emso-fr.org/EMSO-France
Depth: 2436.0 m
Title:EMSO Ligure Ouest : Data MII capteur CSTAR
DateTime,Latitude,Longitude,Instrument_Serial,Reference_Counts,Signal_Counts,Corrected_Signal_raw_counts,Calculated_Beam_c_inverse_meters,Internal_thermistor_counts
DateTime,Latitude,Longitude,Instrument_Serial,Reference_Counts,Signal_Counts,Corrected_Signal_raw_counts,Calculated_Beam_c_inverse_meters,Internal_thermistor_counts
2023-08-03T00:00:40,42.805,6.029,CST-1368DR,4221,4579,11509,01.221,552
2023-08-03T00:03:41,42.805,6.029,CST-1368DR,4222,4580,11509,01.221,552
2023-08-03T00:06:43,42.805,6.029,CST-1368DR,4221,4579,11509,01.221,552
2023-08-03T00:09:44,42.805,6.029,CST-1368DR,4222,4579,11505,01.222,552
2023-08-03T00:12:46,42.805,6.029,CST-1368DR,4221,4579,11508,01.221,552
2023-08-03T00:15:48,42.805,6.029,CST-1368DR,4221,4580,11511,01.220,552
2023-08-03T00:18:49,42.805,6.029,CST-1368DR,4221,4579,11508,01.221,552
2023-08-03T00:21:51,42.805,6.029,CST-1368DR,4221,4579,11509,01.221,552
2023-08-03T00:24:52,42.805,6.029,CST-1368DR,4221,4580,11510,01.220,552
2023-08-03T00:27:54,42.805,6.029,CST-1368DR,4221,4579,11509,01.221,552
2023-08-03T00:30:55,42.805,6.029,CST-1368DR,4221,4577,11504,01.222,552
2023-08-03T00:33:57,42.805,6.029,CST-1368DR,4221,4578,11506,01.222,552
2023-08-03T00:36:59,42.805,6.029,CST-1368DR,4221,4577,11504,01.222,552
2023-08-03T00:40:00,42.805,6.029,CST-1368DR,4221,4577,11503,01.223,552
2023-08-03T00:43:02,42.805,6.029,CST-1368DR,4221,4579,11507,01.221,552
2023-08-03T00:46:03,42.805,6.029,CST-1368DR,4221,4579,11507,01.221,552
2023-08-03T00:49:05,42.805,6.029,CST-1368DR,4221,4579,11507,01.221,552
2023-08-03T00:52:07,42.805,6.029,CST-1368DR,4222,4578,11502,01.223,552
2023-08-03T00:55:08,42.805,6.029,CST-1368DR,4221,4578,11507,01.221,552
2023-08-03T00:58:10,42.805,6.029,CST-1368DR,4221,4579,11509,01.221,552
2023-08-03T01:01:11,42.805,6.029,CST-1368DR,4221,4580,11510,01.220,552
2023-08-03T01:04:13,42.805,6.029,CST-1368DR,4221,4578,11506,01.222,552
2023-08-03T01:07:14,42.805,6.029,CST-1368DR,4221,4578,11506,01.222,552
2023-08-03T01:10:16,42.805,6.029,CST-1368DR,4222,4579,11505,01.222,552
2023-08-03T01:13:18,42.805,6.029,CST-1368DR,4221,4578,11507,01.221,552
2023-08-03T01:16:19,42.805,6.029,CST-1368DR,4221,4578,11505,01.222,552
2023-08-03T01:19:21,42.805,6.029,CST-1368DR,4221,4578,11505,01.222,552
2023-08-03T01:22:22,42.805,6.029,CST-1368DR,4221,4578,11507,01.221,552
2023-08-03T01:25:24,42.805,6.029,CST-1368DR,4221,4578,11505,01.222,552
2023-08-03T01:28:25,42.805,6.029,CST-1368DR,4221,4578,11505,01.222,552
2023-08-03T01:31:27,42.805,6.029,CST-1368DR,4222,4576,11497,01.225,552
2023-08-03T01:34:29,42.805,6.029,CST-1368DR,4222,4571,11486,01.229,552
2023-08-03T01:37:30,42.805,6.029,CST-1368DR,4222,4577,11500,01.224,552
2023-08-03T01:40:32,42.805,6.029,CST-1368DR,4222,4576,11499,01.224,552
2023-08-03T01:43:33,42.805,6.029,CST-1368DR,4222,4575,11496,01.225,552
2023-08-03T01:46:35,42.805,6.029,CST-1368DR,4222,4576,11499,01.224,552
2023-08-03T01:49:37,42.805,6.029,CST-1368DR,4222,4577,11500,01.224,552
2023-08-03T01:52:38,42.805,6.029,CST-1368DR,4222,4577,11500,01.224,552
2023-08-03T01:55:40,42.805,6.029,CST-1368DR,4222,4577,11501,01.223,552
2023-08-03T01:58:41,42.805,6.029,CST-1368DR,4222,4577,11500,01.224,552
2023-08-03T02:01:43,42.805,6.029,CST-1368DR,4222,4577,11500,01.224,552
2023-08-03T02:04:44,42.805,6.029,CST-1368DR,4222,4577,11501,01.223,552
2023-08-03T02:07:46,42.805,6.029,CST-1368DR,4222,4577,11502,01.223,552
2023-08-03T02:10:48,42.805,6.029,CST-1368DR,4222,4577,11501,01.223,552
2023-08-03T02:13:49,42.805,6.029,CST-1368DR,4222,4578,11502,01.223,552
2023-08-03T02:16:51,42.805,6.029,CST-1368DR,4222,4578,11502,01.223,552
2023-08-03T02:19:52,42.805,6.029,CST-1368DR,4222,4577,11500,01.224,552
2023-08-03T02:22:54,42.805,6.029,CST-1368DR,4222,4578,11503,01.223,552
2023-08-03T02:25:55,42.805,6.029,CST-1368DR,4222,4577,11500,01.224,552
2023-08-03T02:28:57,42.805,6.029,CST-1368DR,4222,4576,11499,01.224,552
2023-08-03T02:31:59,42.805,6.029,CST-1368DR,4222,4577,11501,01.223,552
2023-08-03T02:35:00,42.805,6.029,CST-1368DR,4222,4578,11503,01.223,552
2023-08-03T02:38:02,42.805,6.029,CST-1368DR,4222,4577,11502,01.223,552
2023-08-03T02:41:03,42.805,6.029,CST-1368DR,4222,4578,11503,01.223,552
2023-08-03T02:44:05,42.805,6.029,CST-1368DR,4222,4578,11503,01.223,552
2023-08-03T02:47:07,42.805,6.029,CST-1368DR,4222,4578,11503,01.223,552
2023-08-03T02:50:08,42.805,6.029,CST-1368DR,4222,4577,11500,01.224,553
2023-08-03T02:53:10,42.805,6.029,CST-1368DR,4222,4578,11503,01.223,552
2023-08-03T02:56:11,42.805,6.029,CST-1368DR,4222,4577,11501,01.223,552
2023-08-03T02:59:13,42.805,6.029,CST-1368DR,4222,4576,11499,01.224,552
2023-08-03T03:02:14,42.805,6.029,CST-1368DR,4222,4577,11501,01.223,552
2023-08-03T03:05:16,42.805,6.029,CST-1368DR,4221,4578,11505,01.222,552
2023-08-03T03:08:18,42.805,6.029,CST-1368DR,4222,4577,11500,01.224,552
2023-08-03T03:11:19,42.805,6.029,CST-1368DR,4222,4577,11500,01.224,552
2023-08-03T03:14:21,42.805,6.029,CST-1368DR,4222,4578,11502,01.223,552
2023-08-03T03:17:22,42.805,6.029,CST-1368DR,4222,4578,11504,01.222,552
2023-08-03T03:20:24,42.805,6.029,CST-1368DR,4222,4578,11502,01.223,552
2023-08-03T03:23:25,42.805,6.029,CST-1368DR,4222,4577,11501,01.223,552
2023-08-03T03:26:27,42.805,6.029,CST-1368DR,4222,4577,11502,01.223,552
2023-08-03T03:29:29,42.805,6.029,CST-1368DR,4222,4577,11501,01.223,552
2023-08-03T03:32:30,42.805,6.029,CST-1368DR,4222,4576,11499,01.224,552
2023-08-03T03:35:32,42.805,6.029,CST-1368DR,4222,4577,11500,01.224,552
2023-08-03T03:38:33,42.805,6.029,CST-1368DR,4221,4577,11504,01.222,552
2023-08-03T03:41:35,42.805,6.029,CST-1368DR,4222,4577,11502,01.223,552
2023-08-03T03:44:37,42.805,6.029,CST-1368DR,4221,4577,11504,01.222,552
2023-08-03T03:47:38,42.805,6.029,CST-1368DR,4221,4577,11504,01.222,552
2023-08-03T03:50:40,42.805,6.029,CST-1368DR,4222,4577,11502,01.223,552
2023-08-03T03:53:41,42.805,6.029,CST-1368DR,4222,4577,11501,01.223,552
2023-08-03T03:56:43,42.805,6.029,CST-1368DR,4221,4577,11503,01.223,552
2023-08-03T03:59:44,42.805,6.029,CST-1368DR,4222,4576,11499,01.224,552
2023-08-03T04:02:46,42.805,6.029,CST-1368DR,4221,4575,11499,01.224,552
2023-08-03T04:05:48,42.805,6.029,CST-1368DR,4222,4577,11500,01.224,552
2023-08-03T04:08:49,42.805,6.029,CST-1368DR,4221,4577,11502,01.223,552
2023-08-03T04:11:51,42.805,6.029,CST-1368DR,4221,4576,11502,01.223,552
2023-08-03T04:14:52,42.805,6.029,CST-1368DR,4222,4577,11502,01.223,552
2023-08-03T04:17:54,42.805,6.029,CST-1368DR,4222,4577,11502,01.223,552
2023-08-03T04:20:55,42.805,6.029,CST-1368DR,4221,4577,11503,01.223,553
2023-08-03T04:23:57,42.805,6.029,CST-1368DR,4222,4575,11496,01.225,552
2023-08-03T04:26:59,42.805,6.029,CST-1368DR,4221,4572,11492,01.227,552
2023-08-03T04:30:00,42.805,6.029,CST-1368DR,4221,4576,11501,01.223,552
2023-08-03T04:33:02,42.805,6.029,CST-1368DR,4221,4575,11499,01.224,552
2023-08-03T04:36:04,42.805,6.029,CST-1368DR,4221,4576,11500,01.224,552
2023-08-03T04:39:06,42.805,6.029,CST-1368DR,4222,4576,11498,01.224,552
2023-08-03T04:42:07,42.805,6.029,CST-1368DR,4222,4576,11499,01.224,552
2023-08-03T04:45:09,42.805,6.029,CST-1368DR,4222,4577,11500,01.224,552
2023-08-03T04:48:10,42.805,6.029,CST-1368DR,4222,4576,11497,01.225,552
2023-08-03T04:51:12,42.805,6.029,CST-1368DR,4221,4576,11500,01.224,552
2023-08-03T04:54:13,42.805,6.029,CST-1368DR,4221,4572,11490,01.227,552
2023-08-03T04:57:15,42.805,6.029,CST-1368DR,4222,4575,11496,01.225,552
2023-08-03T05:00:17,42.805,6.029,CST-1368DR,4222,4576,11498,01.224,552
2023-08-03T05:03:18,42.805,6.029,CST-1368DR,4222,4575,11495,01.226,552
2023-08-03T05:06:20,42.805,6.029,CST-1368DR,4221,4575,11497,01.225,552
2023-08-03T05:09:21,42.805,6.029,CST-1368DR,4221,4577,11503,01.223,552
2023-08-03T05:12:23,42.805,6.029,CST-1368DR,4222,4574,11492,01.227,552
2023-08-03T05:15:25,42.805,6.029,CST-1368DR,4221,4573,11493,01.226,552
2023-08-03T05:18:26,42.805,6.029,CST-1368DR,4222,4574,11493,01.226,552
2023-08-03T05:21:28,42.805,6.029,CST-1368DR,4221,4575,11499,01.224,552
2023-08-03T05:24:29,42.805,6.029,CST-1368DR,4222,4574,11494,01.226,552
2023-08-03T05:27:31,42.805,6.029,CST-1368DR,4222,4576,11499,01.224,552
2023-08-03T05:30:32,42.805,6.029,CST-1368DR,4222,4577,11501,01.223,552
2023-08-03T05:33:34,42.805,6.029,CST-1368DR,4222,4577,11500,01.224,552
2023-08-03T05:36:36,42.805,6.029,CST-1368DR,4221,4577,11503,01.223,552
2023-08-03T05:39:37,42.805,6.029,CST-1368DR,4221,4576,11502,01.223,552
2023-08-03T05:42:39,42.805,6.029,CST-1368DR,4221,4577,11502,01.223,552
2023-08-03T05:45:40,42.805,6.029,CST-1368DR,4222,4577,11502,01.223,552
2023-08-03T05:48:42,42.805,6.029,CST-1368DR,4221,4577,11502,01.223,552
2023-08-03T05:51:43,42.805,6.029,CST-1368DR,4221,4576,11501,01.223,552
2023-08-03T05:54:45,42.805,6.029,CST-1368DR,4221,4574,11495,01.226,552
2023-08-03T05:57:47,42.805,6.029,CST-1368DR,4221,4576,11502,01.223,552
2023-08-03T06:00:48,42.805,6.029,CST-1368DR,4221,4576,11500,01.224,552
2023-08-03T06:03:50,42.805,6.029,CST-1368DR,4221,4575,11499,01.224,552
2023-08-03T06:06:51,42.805,6.029,CST-1368DR,4221,4576,11501,01.223,552
2023-08-03T06:09:53,42.805,6.029,CST-1368DR,4221,4575,11499,01.224,552
2023-08-03T06:12:55,42.805,6.029,CST-1368DR,4221,4575,11497,01.225,552
2023-08-03T06:15:56,42.805,6.029,CST-1368DR,4221,4574,11497,01.225,552
2023-08-03T06:18:58,42.805,6.029,CST-1368DR,4221,4572,11491,01.227,552
2023-08-03T06:21:59,42.805,6.029,CST-1368DR,4221,4575,11498,01.224,552
2023-08-03T06:25:01,42.805,6.029,CST-1368DR,4221,4575,11498,01.224,552
2023-08-03T06:28:02,42.805,6.029,CST-1368DR,4221,4574,11496,01.225,552
2023-08-03T06:31:06,42.805,6.029,CST-1368DR,4221,4575,11499,01.224,552
2023-08-03T06:34:08,42.805,6.029,CST-1368DR,4221,4576,11500,01.224,552
2023-08-03T06:37:09,42.805,6.029,CST-1368DR,4221,4575,11499,01.224,552
2023-08-03T06:40:11,42.805,6.029,CST-1368DR,4221,4576,11500,01.224,552
2023-08-03T06:43:12,42.805,6.029,CST-1368DR,4221,4576,11502,01.223,552
2023-08-03T06:46:14,42.805,6.029,CST-1368DR,4221,4575,11498,01.224,552
2023-08-03T06:49:16,42.805,6.029,CST-1368DR,4221,4574,11495,01.226,552
2023-08-03T06:52:17,42.805,6.029,CST-1368DR,4221,4575,11498,01.224,552
2023-08-03T06:55:19,42.805,6.029,CST-1368DR,4221,4575,11499,01.224,552
2023-08-03T06:58:20,42.805,6.029,CST-1368DR,4221,4576,11500,01.224,552
2023-08-03T07:01:22,42.805,6.029,CST-1368DR,4221,4575,11499,01.224,552
2023-08-03T07:04:24,42.805,6.029,CST-1368DR,4221,4575,11499,01.224,552
2023-08-03T07:07:25,42.805,6.029,CST-1368DR,4221,4575,11498,01.224,552
2023-08-03T07:10:27,42.805,6.029,CST-1368DR,4221,4574,11495,01.226,552
2023-08-03T07:13:28,42.805,6.029,CST-1368DR,4221,4576,11500,01.224,552
2023-08-03T07:16:30,42.805,6.029,CST-1368DR,4221,4576,11500,01.224,552
2023-08-03T07:19:31,42.805,6.029,CST-1368DR,4221,4575,11498,01.224,552
2023-08-03T07:22:33,42.805,6.029,CST-1368DR,4221,4574,11496,01.225,552
2023-08-03T07:25:35,42.805,6.029,CST-1368DR,4221,4574,11495,01.226,552
2023-08-03T07:28:36,42.805,6.029,CST-1368DR,4221,4575,11498,01.224,552
2023-08-03T07:31:38,42.805,6.029,CST-1368DR,4221,4575,11498,01.224,552
2023-08-03T07:34:39,42.805,6.029,CST-1368DR,4221,4575,11498,01.224,552
2023-08-03T07:37:41,42.805,6.029,CST-1368DR,4221,4575,11499,01.224,552
2023-08-03T07:40:42,42.805,6.029,CST-1368DR,4221,4571,11488,01.228,552
2023-08-03T07:43:44,42.805,6.029,CST-1368DR,4221,4574,11495,01.226,552
2023-08-03T07:46:46,42.805,6.029,CST-1368DR,4221,4574,11496,01.225,552
2023-08-03T07:49:47,42.805,6.029,CST-1368DR,4221,4574,11495,01.226,552
2023-08-03T07:52:49,42.805,6.029,CST-1368DR,4221,4574,11495,01.226,552
2023-08-03T07:55:50,42.805,6.029,CST-1368DR,4221,4573,11493,01.226,552
2023-08-03T07:58:52,42.805,6.029,CST-1368DR,4221,4574,11497,01.225,552
2023-08-03T08:01:54,42.805,6.029,CST-1368DR,4221,4573,11494,01.226,552
2023-08-03T08:04:55,42.805,6.029,CST-1368DR,4221,4571,11488,01.228,552
2023-08-03T08:07:57,42.805,6.029,CST-1368DR,4221,4573,11494,01.226,552
2023-08-03T08:10:58,42.805,6.029,CST-1368DR,4221,4575,11497,01.225,552
2023-08-03T08:14:00,42.805,6.029,CST-1368DR,4221,4574,11497,01.225,552
2023-08-03T08:17:01,42.805,6.029,CST-1368DR,4221,4575,11498,01.224,552
2023-08-03T08:20:03,42.805,6.029,CST-1368DR,4221,4573,11493,01.226,552
2023-08-03T08:23:05,42.805,6.029,CST-1368DR,4221,4575,11498,01.224,552
2023-08-03T08:26:06,42.805,6.029,CST-1368DR,4221,4574,11497,01.225,552
2023-08-03T08:29:08,42.805,6.029,CST-1368DR,4221,4574,11497,01.225,552
2023-08-03T08:32:09,42.805,6.029,CST-1368DR,4221,4575,11498,01.224,552
2023-08-03T08:35:11,42.805,6.029,CST-1368DR,4221,4573,11494,01.226,552
2023-08-03T08:38:12,42.805,6.029,CST-1368DR,4221,4573,11493,01.226,552
2023-08-03T08:41:14,42.805,6.029,CST-1368DR,4221,4574,11496,01.225,552
2023-08-03T08:44:15,42.805,6.029,CST-1368DR,4221,4573,11493,01.226,552
2023-08-03T08:47:17,42.805,6.029,CST-1368DR,4221,4575,11498,01.224,552
2023-08-03T08:50:18,42.805,6.029,CST-1368DR,4221,4574,11496,01.225,552
2023-08-03T08:53:20,42.805,6.029,CST-1368DR,4221,4574,11495,01.226,552
2023-08-03T08:56:22,42.805,6.029,CST-1368DR,4221,4574,11495,01.226,552
2023-08-03T08:59:23,42.805,6.029,CST-1368DR,4221,4573,11493,01.226,552
2023-08-03T09:02:25,42.805,6.029,CST-1368DR,4221,4576,11500,01.224,552
2023-08-03T09:05:26,42.805,6.029,CST-1368DR,4221,4575,11498,01.224,552
2023-08-03T09:08:28,42.805,6.029,CST-1368DR,4221,4575,11499,01.224,552
2023-08-03T09:11:29,42.805,6.029,CST-1368DR,4221,4575,11497,01.225,552
2023-08-03T09:14:31,42.805,6.029,CST-1368DR,4221,4575,11498,01.224,552
2023-08-03T09:17:33,42.805,6.029,CST-1368DR,4221,4575,11497,01.225,552
2023-08-03T09:20:34,42.805,6.029,CST-1368DR,4221,4575,11497,01.225,552
2023-08-03T09:23:36,42.805,6.029,CST-1368DR,4221,4574,11495,01.226,552
2023-08-03T09:26:37,42.805,6.029,CST-1368DR,4221,4575,11498,01.224,552
2023-08-03T09:29:39,42.805,6.029,CST-1368DR,4221,4575,11497,01.225,552
2023-08-03T09:32:41,42.805,6.029,CST-1368DR,4221,4575,11497,01.225,552
2023-08-03T09:35:42,42.805,6.029,CST-1368DR,4221,4575,11497,01.225,552
2023-08-03T09:38:44,42.805,6.029,CST-1368DR,4221,4576,11502,01.223,552
2023-08-03T09:41:45,42.805,6.029,CST-1368DR,4221,4576,11501,01.223,552
2023-08-03T09:44:47,42.805,6.029,CST-1368DR,4221,4574,11497,01.225,552
2023-08-03T09:47:48,42.805,6.029,CST-1368DR,4221,4576,11500,01.224,552
2023-08-03T09:50:50,42.805,6.029,CST-1368DR,4221,4576,11502,01.223,552
2023-08-03T09:53:52,42.805,6.029,CST-1368DR,4221,4575,11499,01.224,552
2023-08-03T09:56:53,42.805,6.029,CST-1368DR,4221,4574,11496,01.225,552
2023-08-03T09:59:55,42.805,6.029,CST-1368DR,4221,4575,11498,01.224,552
2023-08-03T10:02:56,42.805,6.029,CST-1368DR,4221,4574,11497,01.225,552
2023-08-03T10:05:58,42.805,6.029,CST-1368DR,4221,4576,11500,01.224,552
2023-08-03T10:08:59,42.805,6.029,CST-1368DR,4221,4575,11499,01.224,552
2023-08-03T10:12:01,42.805,6.029,CST-1368DR,4221,4575,11499,01.224,552
2023-08-03T10:15:03,42.805,6.029,CST-1368DR,4221,4576,11500,01.224,552
2023-08-03T10:18:04,42.805,6.029,CST-1368DR,4221,4576,11500,01.224,552
2023-08-03T10:21:06,42.805,6.029,CST-1368DR,4221,4576,11500,01.224,552
2023-08-03T10:24:07,42.805,6.029,CST-1368DR,4221,4575,11499,01.224,552
2023-08-03T10:27:09,42.805,6.029,CST-1368DR,4221,4574,11497,01.225,552
2023-08-03T10:30:12,42.805,6.029,CST-1368DR,4221,4575,11497,01.225,552
2023-08-03T10:33:13,42.805,6.029,CST-1368DR,4221,4577,11502,01.223,552
2023-08-03T10:36:15,42.805,6.029,CST-1368DR,4221,4576,11500,01.224,552
2023-08-03T10:39:16,42.805,6.029,CST-1368DR,4221,4575,11498,01.224,552
2023-08-03T10:42:18,42.805,6.029,CST-1368DR,4221,4576,11500,01.224,552
2023-08-03T10:45:19,42.805,6.029,CST-1368DR,4221,4576,11500,01.224,552
2023-08-03T10:48:21,42.805,6.029,CST-1368DR,4221,4573,11493,01.226,552
2023-08-03T10:51:23,42.805,6.029,CST-1368DR,4221,4575,11497,01.225,552
2023-08-03T10:54:24,42.805,6.029,CST-1368DR,4221,4575,11499,01.224,552
2023-08-03T10:57:26,42.805,6.029,CST-1368DR,4221,4576,11502,01.223,552
2023-08-03T11:00:27,42.805,6.029,CST-1368DR,4221,4576,11502,01.223,552
2023-08-03T11:03:29,42.805,6.029,CST-1368DR,4221,4575,11497,01.225,552
2023-08-03T11:06:31,42.805,6.029,CST-1368DR,4221,4575,11499,01.224,552
2023-08-03T11:09:32,42.805,6.029,CST-1368DR,4221,4576,11502,01.223,552
2023-08-03T11:12:34,42.805,6.029,CST-1368DR,4221,4575,11499,01.224,552
2023-08-03T11:15:35,42.805,6.029,CST-1368DR,4221,4575,11498,01.224,552
2023-08-03T11:18:37,42.805,6.029,CST-1368DR,4221,4575,11498,01.224,552
2023-08-03T11:21:38,42.805,6.029,CST-1368DR,4221,4576,11500,01.224,552
2023-08-03T11:24:40,42.805,6.029,CST-1368DR,4221,4575,11499,01.224,552
2023-08-03T11:27:42,42.805,6.029,CST-1368DR,4221,4576,11502,01.223,552
2023-08-03T11:30:43,42.805,6.029,CST-1368DR,4221,4575,11499,01.224,552
2023-08-03T11:33:45,42.805,6.029,CST-1368DR,4221,4576,11500,01.224,552
2023-08-03T11:36:46,42.805,6.029,CST-1368DR,4221,4575,11498,01.224,552
2023-08-03T11:39:48,42.805,6.029,CST-1368DR,4221,4576,11500,01.224,552
2023-08-03T11:42:49,42.805,6.029,CST-1368DR,4221,4575,11499,01.224,552
2023-08-03T11:45:51,42.805,6.029,CST-1368DR,4221,4574,11497,01.225,552
2023-08-03T11:48:53,42.805,6.029,CST-1368DR,4221,4575,11498,01.224,552
2023-08-03T11:51:54,42.805,6.029,CST-1368DR,4221,4576,11501,01.223,552
2023-08-03T11:54:56,42.805,6.029,CST-1368DR,4221,4574,11496,01.225,552
2023-08-03T11:57:57,42.805,6.029,CST-1368DR,4221,4575,11499,01.224,552
2023-08-03T12:00:59,42.805,6.029,CST-1368DR,4221,4576,11500,01.224,552
2023-08-03T12:04:00,42.805,6.029,CST-1368DR,4221,4575,11498,01.224,552
2023-08-03T12:07:02,42.805,6.029,CST-1368DR,4221,4576,11500,01.224,552
2023-08-03T12:10:04,42.805,6.029,CST-1368DR,4221,4577,11502,01.223,552
2023-08-03T12:13:05,42.805,6.029,CST-1368DR,4221,4576,11502,01.223,552
2023-08-03T12:16:07,42.805,6.029,CST-1368DR,4221,4576,11502,01.223,552
2023-08-03T12:19:08,42.805,6.029,CST-1368DR,4221,4576,11501,01.223,552
2023-08-03T12:22:10,42.805,6.029,CST-1368DR,4221,4575,11497,01.225,552
2023-08-03T12:25:12,42.805,6.029,CST-1368DR,4221,4576,11500,01.224,552
2023-08-03T12:28:13,42.805,6.029,CST-1368DR,4221,4576,11502,01.223,552
2023-08-03T12:31:15,42.805,6.029,CST-1368DR,4221,4575,11497,01.225,552
2023-08-03T12:34:16,42.805,6.029,CST-1368DR,4221,4576,11501,01.223,552
2023-08-03T12:37:18,42.805,6.029,CST-1368DR,4221,4575,11498,01.224,552
2023-08-03T12:40:19,42.805,6.029,CST-1368DR,4221,4575,11498,01.224,552
2023-08-03T12:43:21,42.805,6.029,CST-1368DR,4221,4575,11498,01.224,552
2023-08-03T12:46:23,42.805,6.029,CST-1368DR,4221,4576,11502,01.223,552
2023-08-03T12:49:24,42.805,6.029,CST-1368DR,4221,4575,11499,01.224,552
2023-08-03T12:52:26,42.805,6.029,CST-1368DR,4221,4576,11500,01.224,552
2023-08-03T12:55:27,42.805,6.029,CST-1368DR,4221,4577,11502,01.223,552
2023-08-03T12:58:29,42.805,6.029,CST-1368DR,4221,4577,11502,01.223,552
2023-08-03T13:01:30,42.805,6.029,CST-1368DR,4221,4575,11499,01.224,552
2023-08-03T13:04:32,42.805,6.029,CST-1368DR,4221,4576,11500,01.224,552
2023-08-03T13:07:34,42.805,6.029,CST-1368DR,4221,4577,11502,01.223,552
2023-08-03T13:10:35,42.805,6.029,CST-1368DR,4221,4575,11498,01.224,552
2023-08-03T13:13:37,42.805,6.029,CST-1368DR,4221,4576,11501,01.223,552
2023-08-03T13:16:38,42.805,6.029,CST-1368DR,4221,4576,11501,01.223,552
2023-08-03T13:19:40,42.805,6.029,CST-1368DR,4221,4574,11497,01.225,552
2023-08-03T13:22:42,42.805,6.029,CST-1368DR,4221,4575,11499,01.224,552
2023-08-03T13:25:43,42.805,6.029,CST-1368DR,4221,4577,11503,01.223,552
2023-08-03T13:28:45,42.805,6.029,CST-1368DR,4221,4577,11502,01.223,552
2023-08-03T13:31:46,42.805,6.029,CST-1368DR,4221,4577,11503,01.223,552
2023-08-03T13:34:48,42.805,6.029,CST-1368DR,4221,4577,11502,01.223,552
2023-08-03T13:37:49,42.805,6.029,CST-1368DR,4221,4575,11499,01.224,552
2023-08-03T13:40:51,42.805,6.029,CST-1368DR,4221,4576,11501,01.223,552
2023-08-03T13:43:53,42.805,6.029,CST-1368DR,4221,4576,11501,01.223,552
2023-08-03T13:46:54,42.805,6.029,CST-1368DR,4221,4575,11498,01.224,552
2023-08-03T13:49:56,42.805,6.029,CST-1368DR,4221,4573,11494,01.226,552
2023-08-03T13:52:57,42.805,6.029,CST-1368DR,4221,4576,11501,01.223,552
2023-08-03T13:55:59,42.805,6.029,CST-1368DR,4221,4574,11497,01.225,552
2023-08-03T13:59:00,42.805,6.029,CST-1368DR,4221,4575,11499,01.224,552
2023-08-03T14:02:02,42.805,6.029,CST-1368DR,4221,4575,11499,01.224,552
2023-08-03T14:05:04,42.805,6.029,CST-1368DR,4221,4575,11498,01.224,552
2023-08-03T14:08:05,42.805,6.029,CST-1368DR,4221,4576,11500,01.224,552
2023-08-03T14:11:07,42.805,6.029,CST-1368DR,4221,4575,11499,01.224,552
2023-08-03T14:14:08,42.805,6.029,CST-1368DR,4221,4575,11499,01.224,552
2023-08-03T14:17:10,42.805,6.029,CST-1368DR,4221,4574,11495,01.226,552
2023-08-03T14:20:12,42.805,6.029,CST-1368DR,4221,4575,11498,01.224,552
2023-08-03T14:23:13,42.805,6.029,CST-1368DR,4221,4573,11493,01.226,552
2023-08-03T14:26:15,42.805,6.029,CST-1368DR,4221,4574,11496,01.225,552
2023-08-03T14:29:16,42.805,6.029,CST-1368DR,4221,4574,11496,01.225,552
2023-08-03T14:32:18,42.805,6.029,CST-1368DR,4221,4574,11495,01.226,552
2023-08-03T14:35:20,42.805,6.029,CST-1368DR,4221,4574,11497,01.225,552
2023-08-03T14:38:21,42.805,6.029,CST-1368DR,4221,4575,11498,01.224,552
2023-08-03T14:41:23,42.805,6.029,CST-1368DR,4221,4575,11497,01.225,552
2023-08-03T14:44:25,42.805,6.029,CST-1368DR,4221,4574,11496,01.225,552
2023-08-03T14:47:26,42.805,6.029,CST-1368DR,4221,4575,11498,01.224,552
2023-08-03T14:50:28,42.805,6.029,CST-1368DR,4221,4574,11497,01.225,552
2023-08-03T14:53:29,42.805,6.029,CST-1368DR,4221,4575,11498,01.224,552
2023-08-03T14:56:31,42.805,6.029,CST-1368DR,4221,4573,11493,01.226,552
2023-08-03T14:59:32,42.805,6.029,CST-1368DR,4221,4574,11496,01.225,552
2023-08-03T15:02:34,42.805,6.029,CST-1368DR,4221,4575,11498,01.224,552
2023-08-03T15:05:36,42.805,6.029,CST-1368DR,4221,4574,11495,01.226,552
2023-08-03T15:08:37,42.805,6.029,CST-1368DR,4221,4573,11494,01.226,552
2023-08-03T15:11:39,42.805,6.029,CST-1368DR,4221,4574,11495,01.226,552
2023-08-03T15:14:40,42.805,6.029,CST-1368DR,4221,4574,11496,01.225,552
2023-08-03T15:17:42,42.805,6.029,CST-1368DR,4221,4573,11493,01.226,552
2023-08-03T15:20:43,42.805,6.029,CST-1368DR,4221,4575,11498,01.224,552
2023-08-03T15:23:45,42.805,6.029,CST-1368DR,4221,4572,11491,01.227,552
2023-08-03T15:26:47,42.805,6.029,CST-1368DR,4221,4574,11495,01.226,552
2023-08-03T15:29:48,42.805,6.029,CST-1368DR,4221,4574,11496,01.225,552
2023-08-03T15:32:50,42.805,6.029,CST-1368DR,4221,4575,11499,01.224,552
2023-08-03T15:35:51,42.805,6.029,CST-1368DR,4221,4575,11498,01.224,552
2023-08-03T15:38:53,42.805,6.029,CST-1368DR,4221,4575,11498,01.224,552
2023-08-03T15:41:55,42.805,6.029,CST-1368DR,4221,4576,11500,01.224,552
2023-08-03T15:44:56,42.805,6.029,CST-1368DR,4221,4574,11497,01.225,552
2023-08-03T15:47:58,42.805,6.029,CST-1368DR,4221,4575,11497,01.225,552
2023-08-03T15:50:59,42.805,6.029,CST-1368DR,4221,4574,11497,01.225,552
2023-08-03T15:54:01,42.805,6.029,CST-1368DR,4221,4575,11498,01.224,552
2023-08-03T15:57:02,42.805,6.029,CST-1368DR,4221,4573,11494,01.226,552
2023-08-03T16:00:04,42.805,6.029,CST-1368DR,4221,4575,11498,01.224,552
2023-08-03T16:03:06,42.805,6.029,CST-1368DR,4221,4575,11497,01.225,552
2023-08-03T16:06:07,42.805,6.029,CST-1368DR,4221,4576,11500,01.224,552
2023-08-03T16:09:09,42.805,6.029,CST-1368DR,4221,4576,11501,01.223,552
2023-08-03T16:12:10,42.805,6.029,CST-1368DR,4221,4576,11500,01.224,552
2023-08-03T16:15:12,42.805,6.029,CST-1368DR,4221,4576,11501,01.223,552
2023-08-03T16:18:13,42.805,6.029,CST-1368DR,4221,4576,11501,01.223,552
2023-08-03T16:21:15,42.805,6.029,CST-1368DR,4221,4577,11503,01.223,552
2023-08-03T16:24:17,42.805,6.029,CST-1368DR,4221,4576,11501,01.223,553
2023-08-03T16:27:18,42.805,6.029,CST-1368DR,4221,4576,11501,01.223,552
2023-08-03T16:30:21,42.805,6.029,CST-1368DR,4221,4576,11501,01.223,552
2023-08-03T16:33:22,42.805,6.029,CST-1368DR,4221,4576,11502,01.223,552
2023-08-03T16:36:24,42.805,6.029,CST-1368DR,4221,4573,11494,01.226,552